When you browse on this site, cookies collect data to enhance your experience and personalize the content and advertising you see.
Visit our Privacy Policy to learn more. By continuing to use the site, you agree to this use of cookies and data.
  • In Germany
  • List of Countries
  • For 7 days
  • Water Temperature
  • Satellite Maps
  • Weather Map
  • Weather Widgets
  • user-avatar
    Login

    Hourly Weather Algiers

    Today, 25 April, Thursday

    Time Temperature Precipitation Wind Pressure Humidity
    00:00 +15°C° 0 mm 1 mps 748 mmHg 65%
    01:00 +15°C° 0 mm 1 mps 748 mmHg 64%
    02:00 +15°C° 0 mm 1 mps 748 mmHg 64%
    03:00 +16°C° 0 mm 1 mps 748 mmHg 64%
    04:00 +16°C° 0 mm 1 mps 748 mmHg 64%
    05:00 +16°C° 0 mm 2 mps 748 mmHg 64%
    06:00 +16°C° 0 mm 2 mps 749 mmHg 63%
    07:00 +19°C° 0 mm 1 mps 749 mmHg 58%
    08:00 +22°C° 0 mm 1 mps 749 mmHg 52%
    09:00 +22°C° 0 mm 0 mps 749 mmHg 47%
    10:00 +25°C° 0 mm 1 mps 749 mmHg 44%
    11:00 +26°C° 0 mm 2 mps 749 mmHg 42%
    12:00 +27°C° 0 mm 2 mps 749 mmHg 39%
    13:00 +26°C° 0 mm 3 mps 749 mmHg 41%
    14:00 +26°C° 0 mm 3 mps 748 mmHg 42%
    15:00 +25°C° 0 mm 3 mps 748 mmHg 44%
    16:00 +24°C° 0 mm 3 mps 748 mmHg 46%
    17:00 +23°C° 0 mm 2 mps 748 mmHg 49%
    18:00 +22°C° 0 mm 1 mps 748 mmHg 52%
    19:00 +21°C° 0 mm 1 mps 749 mmHg 52%
    20:00 +21°C° 0 mm 1 mps 750 mmHg 52%
    21:00 +20°C° 0 mm 1 mps 751 mmHg 53%
    22:00 +20°C° 0 mm 1 mps 751 mmHg 52%
    23:00 +18°C° 0 mm 2 mps 752 mmHg 51%

    Tomorrow, 26 April, Friday

    Time Temperature Precipitation Wind Pressure Humidity
    00:00 +18°C° 0 mm 2 mps 752 mmHg 51%
    01:00 +18°C° 0 mm 3 mps 752 mmHg 55%
    02:00 +17°C° 0 mm 3 mps 752 mmHg 59%
    03:00 +17°C° 0 mm 3 mps 752 mmHg 63%
    04:00 +17°C° 0 mm 3 mps 753 mmHg 69%
    05:00 +17°C° 0 mm 2 mps 753 mmHg 76%
    06:00 +17°C° 0 mm 2 mps 753 mmHg 82%
    07:00 +17°C° 0 mm 2 mps 754 mmHg 78%
    08:00 +17°C° 0 mm 2 mps 754 mmHg 74%
    09:00 +17°C° 0 mm 3 mps 754 mmHg 70%
    10:00 +18°C° 0 mm 3 mps 754 mmHg 64%
    11:00 +19°C° 0 mm 2 mps 754 mmHg 57%
    12:00 +20°C° 0 mm 2 mps 754 mmHg 51%
    13:00 +20°C° 0 mm 3 mps 754 mmHg 50%
    14:00 +20°C° 0 mm 3 mps 754 mmHg 50%
    15:00 +20°C° 0 mm 4 mps 754 mmHg 49%
    16:00 +19°C° 0 mm 3 mps 754 mmHg 52%
    17:00 +18°C° 0 mm 3 mps 754 mmHg 55%
    18:00 +17°C° 0 mm 2 mps 754 mmHg 58%
    19:00 +17°C° 0 mm 2 mps 754 mmHg 59%
    20:00 +16°C° 0 mm 2 mps 755 mmHg 61%
    21:00 +15°C° 0 mm 1 mps 756 mmHg 63%
    22:00 +15°C° 0 mm 1 mps 756 mmHg 63%
    23:00 +15°C° 0 mm 1 mps 755 mmHg 62%

    Day after tomorrow, 27 April, Saturday

    Time Temperature Precipitation Wind Pressure Humidity
    00:00 +15°C° 0 mm 1 mps 755 mmHg 62%
    01:00 +15°C° 0 mm 1 mps 755 mmHg 61%
    02:00 +14°C° 0 mm 1 mps 755 mmHg 61%
    03:00 +14°C° 0 mm 1 mps 755 mmHg 60%
    04:00 +14°C° 0 mm 1 mps 755 mmHg 60%
    05:00 +14°C° 0 mm 1 mps 755 mmHg 60%
    06:00 +14°C° 0 mm 1 mps 755 mmHg 60%
    07:00 +16°C° 0 mm 2 mps 755 mmHg 55%
    08:00 +17°C° 0 mm 2 mps 755 mmHg 50%
    09:00 +18°C° 0 mm 2 mps 755 mmHg 46%
    10:00 +19°C° 0 mm 3 mps 755 mmHg 43%
    11:00 +20°C° 0 mm 3 mps 755 mmHg 41%
    12:00 +21°C° 0 mm 4 mps 755 mmHg 39%
    13:00 +21°C° 0 mm 4 mps 755 mmHg 40%
    14:00 +21°C° 0 mm 4 mps 754 mmHg 42%
    15:00 +20°C° 0 mm 5 mps 754 mmHg 44%
    16:00 +19°C° 0 mm 4 mps 754 mmHg 48%
    17:00 +19°C° 0 mm 4 mps 754 mmHg 51%
    18:00 +18°C° 0 mm 4 mps 754 mmHg 55%
    19:00 +17°C° 0 mm 3 mps 754 mmHg 58%
    20:00 +16°C° 0 mm 3 mps 755 mmHg 60%
    21:00 +14°C° 0 mm 3 mps 755 mmHg 63%
    22:00 +15°C° 0 mm 2 mps 755 mmHg 63%
    23:00 +15°C° 0 mm 2 mps 755 mmHg 63%

    28 April, Sunday

    Time Temperature Precipitation Wind Pressure Humidity
    00:00 +15°C° 0 mm 2 mps 754 mmHg 63%
    01:00 +14°C° 0 mm 2 mps 754 mmHg 61%
    02:00 +14°C° 0 mm 2 mps 754 mmHg 60%
    03:00 +14°C° 0 mm 2 mps 753 mmHg 59%
    04:00 +14°C° 0 mm 2 mps 753 mmHg 57%
    05:00 +15°C° 0 mm 2 mps 753 mmHg 56%
    06:00 +15°C° 0 mm 2 mps 753 mmHg 54%
    07:00 +16°C° 0 mm 2 mps 753 mmHg 49%
    08:00 +18°C° 0 mm 3 mps 753 mmHg 44%
    09:00 +20°C° 0 mm 3 mps 753 mmHg 38%
    10:00 +20°C° 0 mm 4 mps 753 mmHg 38%
    11:00 +21°C° 0 mm 4 mps 752 mmHg 37%
    12:00 +22°C° 0 mm 5 mps 752 mmHg 37%
    13:00 +22°C° 0 mm 5 mps 751 mmHg 40%
    14:00 +21°C° 0 mm 5 mps 751 mmHg 43%
    15:00 +21°C° 0 mm 6 mps 750 mmHg 46%
    16:00 +20°C° 0 mm 5 mps 750 mmHg 50%
    17:00 +19°C° 0 mm 5 mps 750 mmHg 54%
    18:00 +18°C° 0 mm 4 mps 750 mmHg 58%
    19:00 +17°C° 0 mm 4 mps 750 mmHg 62%
    20:00 +17°C° 0 mm 4 mps 750 mmHg 65%
    21:00 +16°C° 0 mm 3 mps 751 mmHg 68%
    22:00 +16°C° 0 mm 3 mps 751 mmHg 69%
    23:00 +16°C° 0 mm 3 mps 750 mmHg 70%

    29 April, Monday

    Time Temperature Precipitation Wind Pressure Humidity
    00:00 +14°C° 0 mm 3 mps 750 mmHg 71%
    01:00 +14°C° 0 mm 3 mps 750 mmHg 72%
    02:00 +14°C° 0 mm 4 mps 750 mmHg 73%
    03:00 +14°C° 0 mm 4 mps 749 mmHg 74%
    04:00 +14°C° 0 mm 4 mps 749 mmHg 74%
    05:00 +14°C° 0 mm 4 mps 749 mmHg 74%
    06:00 +14°C° 0 mm 4 mps 749 mmHg 74%
    07:00 +16°C° 0 mm 5 mps 749 mmHg 69%
    08:00 +17°C° 0 mm 5 mps 749 mmHg 65%
    09:00 +19°C° 0 mm 5 mps 749 mmHg 60%
    10:00 +20°C° 0 mm 6 mps 749 mmHg 59%
    11:00 +21°C° 0 mm 6 mps 749 mmHg 59%
    12:00 +21°C° 0 mm 7 mps 748 mmHg 58%
    13:00 +21°C° 0 mm 7 mps 748 mmHg 59%
    14:00 +21°C° 0 mm 7 mps 748 mmHg 60%
    15:00 +21°C° 0 mm 6 mps 747 mmHg 60%
    16:00 +20°C° 0 mm 6 mps 748 mmHg 63%
    17:00 +19°C° 0 mm 6 mps 748 mmHg 66%
    18:00 +17°C° 0 mm 6 mps 748 mmHg 69%
    19:00 +16°C° 0 mm 5 mps 748 mmHg 72%
    20:00 +15°C° 0 mm 5 mps 749 mmHg 74%
    21:00 +15°C° 0 mm 4 mps 749 mmHg 77%
    22:00 +14°C° 0 mm 4 mps 749 mmHg 77%
    23:00 +14°C° 0 mm 4 mps 749 mmHg 77%

    30 April, Tuesday

    Time Temperature Precipitation Wind Pressure Humidity
    00:00 +14°C° 0 mm 3 mps 749 mmHg 78%
    01:00 +14°C° 0 mm 3 mps 749 mmHg 78%
    02:00 +14°C° 0 mm 3 mps 748 mmHg 78%
    03:00 +14°C° 0 mm 3 mps 748 mmHg 78%
    04:00 +14°C° 0 mm 3 mps 748 mmHg 77%
    05:00 +14°C° 0 mm 3 mps 748 mmHg 76%
    06:00 +14°C° 0 mm 3 mps 748 mmHg 75%
    07:00 +17°C° 0 mm 3 mps 748 mmHg 69%
    08:00 +18°C° 0 mm 4 mps 748 mmHg 63%
    09:00 +20°C° 0 mm 4 mps 748 mmHg 57%
    10:00 +21°C° 0 mm 4 mps 748 mmHg 54%
    11:00 +22°C° 0 mm 5 mps 748 mmHg 51%
    12:00 +23°C° 0 mm 5 mps 748 mmHg 48%
    13:00 +23°C° 0 mm 5 mps 747 mmHg 50%
    14:00 +22°C° 0 mm 5 mps 747 mmHg 52%
    15:00 +22°C° 0 mm 5 mps 747 mmHg 53%
    16:00 +21°C° 0 mm 5 mps 746 mmHg 57%
    17:00 +20°C° 0 mm 5 mps 746 mmHg 61%
    18:00 +19°C° 0 mm 4 mps 746 mmHg 64%
    19:00 +19°C° 0 mm 4 mps 746 mmHg 67%
    20:00 +18°C° 0 mm 4 mps 747 mmHg 70%
    21:00 +17°C° 0 mm 3 mps 747 mmHg 73%
    22:00 +17°C° 0 mm 3 mps 747 mmHg 71%
    23:00 +17°C° 0 mm 3 mps 746 mmHg 69%
    Show more